Stündliche Wetter Cayos Cochinos

Heute, 31 Oktober, Samstag

Zeit Temperatur Niederschläge Wind Luftdruck Luftfeuchtigkeit
00:00 +25°C° 0 mm 1 m/S 760 mmHg 96%
01:00 +25°C° 0.6 mm 2 m/S 759 mmHg 96%
02:00 +24°C° 0.6 mm 2 m/S 759 mmHg 97%
03:00 +24°C° 0.6 mm 3 m/S 759 mmHg 97%
04:00 +24°C° 0.6 mm 3 m/S 759 mmHg 97%
05:00 +24°C° 0.6 mm 3 m/S 760 mmHg 97%
06:00 +24°C° 0.6 mm 3 m/S 760 mmHg 96%
07:00 +27°C° 0.6 mm 3 m/S 760 mmHg 84%
08:00 +29°C° 0.6 mm 3 m/S 761 mmHg 72%
09:00 +33°C° 0.6 mm 4 m/S 761 mmHg 60%
10:00 +33°C° 0.2 mm 4 m/S 761 mmHg 60%
11:00 +33°C° 0.2 mm 4 m/S 760 mmHg 60%
12:00 +33°C° 0.2 mm 4 m/S 759 mmHg 59%
13:00 +33°C° 0 mm 4 m/S 759 mmHg 61%
14:00 +32°C° 0 mm 4 m/S 759 mmHg 63%
15:00 +31°C° 0 mm 3 m/S 758 mmHg 66%
16:00 +29°C° 0.1 mm 3 m/S 758 mmHg 75%
17:00 +27°C° 0.1 mm 3 m/S 759 mmHg 84%
18:00 +26°C° 0.1 mm 2 m/S 759 mmHg 93%
19:00 +26°C° 0.2 mm 3 m/S 760 mmHg 94%
20:00 +25°C° 0.2 mm 3 m/S 760 mmHg 94%
21:00 +25°C° 0.2 mm 3 m/S 761 mmHg 95%
22:00 +25°C° 0.2 mm 3 m/S 761 mmHg 95%
23:00 +24°C° 0.2 mm 3 m/S 760 mmHg 95%

Morgen, 1 November, Sonntag

Zeit Temperatur Niederschläge Wind Luftdruck Luftfeuchtigkeit
00:00 +23°C° 0.2 mm 4 m/S 760 mmHg 95%
01:00 +23°C° 0.3 mm 4 m/S 760 mmHg 94%
02:00 +23°C° 0.3 mm 4 m/S 759 mmHg 94%
03:00 +23°C° 0.3 mm 4 m/S 759 mmHg 93%
04:00 +22°C° 0.6 mm 4 m/S 759 mmHg 93%
05:00 +22°C° 0.6 mm 4 m/S 760 mmHg 93%
06:00 +22°C° 0.6 mm 5 m/S 760 mmHg 93%
07:00 +25°C° 0.9 mm 5 m/S 760 mmHg 87%
08:00 +27°C° 0.9 mm 5 m/S 760 mmHg 80%
09:00 +30°C° 0.9 mm 5 m/S 761 mmHg 73%
10:00 +29°C° 0.6 mm 5 m/S 760 mmHg 75%
11:00 +29°C° 0.6 mm 6 m/S 759 mmHg 77%
12:00 +29°C° 0.6 mm 6 m/S 759 mmHg 79%
13:00 +30°C° 0.8 mm 5 m/S 758 mmHg 76%
14:00 +30°C° 0.8 mm 5 m/S 758 mmHg 72%
15:00 +30°C° 0.8 mm 4 m/S 757 mmHg 68%
16:00 +29°C° 0.8 mm 4 m/S 758 mmHg 74%
17:00 +27°C° 0.8 mm 4 m/S 758 mmHg 80%
18:00 +26°C° 0.8 mm 4 m/S 758 mmHg 86%
19:00 +26°C° 1.8 mm 4 m/S 759 mmHg 87%
20:00 +26°C° 1.8 mm 4 m/S 759 mmHg 88%
21:00 +26°C° 1.8 mm 4 m/S 759 mmHg 88%
22:00 +25°C° 2.5 mm 5 m/S 759 mmHg 91%
23:00 +25°C° 2.5 mm 5 m/S 759 mmHg 94%

übermorgen, 2 November, Montag

Zeit Temperatur Niederschläge Wind Luftdruck Luftfeuchtigkeit
00:00 +24°C° 2.5 mm 6 m/S 759 mmHg 97%
01:00 +26°C° 6.6 mm 6 m/S 758 mmHg 98%
02:00 +26°C° 6.6 mm 7 m/S 758 mmHg 98%
03:00 +26°C° 6.6 mm 7 m/S 757 mmHg 99%
04:00 +26°C° 6.2 mm 6 m/S 758 mmHg 99%
05:00 +26°C° 6.2 mm 5 m/S 758 mmHg 99%
06:00 +25°C° 6.2 mm 3 m/S 758 mmHg 99%
07:00 +25°C° 4.1 mm 3 m/S 759 mmHg 99%
08:00 +25°C° 4.1 mm 3 m/S 759 mmHg 99%
09:00 +25°C° 4.1 mm 4 m/S 759 mmHg 99%
10:00 +26°C° 3.5 mm 4 m/S 759 mmHg 98%
11:00 +27°C° 3.5 mm 5 m/S 758 mmHg 97%
12:00 +28°C° 3.5 mm 6 m/S 758 mmHg 95%
13:00 +27°C° 2.7 mm 6 m/S 758 mmHg 96%
14:00 +27°C° 2.7 mm 6 m/S 757 mmHg 97%
15:00 +26°C° 2.7 mm 6 m/S 757 mmHg 97%
16:00 +26°C° 2.7 mm 5 m/S 757 mmHg 98%
17:00 +26°C° 2.7 mm 5 m/S 757 mmHg 98%
18:00 +26°C° 2.7 mm 5 m/S 758 mmHg 98%
19:00 +26°C° 2.7 mm 5 m/S 758 mmHg 98%
20:00 +26°C° 2.7 mm 4 m/S 758 mmHg 98%
21:00 +26°C° 2.7 mm 4 m/S 759 mmHg 98%
22:00 +26°C° 3.1 mm 4 m/S 758 mmHg 98%
23:00 +25°C° 3.1 mm 4 m/S 758 mmHg 98%

3 November, Dienstag

Zeit Temperatur Niederschläge Wind Luftdruck Luftfeuchtigkeit
00:00 +25°C° 3.1 mm 4 m/S 757 mmHg 98%
01:00 +25°C° 2.7 mm 4 m/S 757 mmHg 98%
02:00 +25°C° 2.7 mm 4 m/S 757 mmHg 98%
03:00 +25°C° 2.7 mm 4 m/S 757 mmHg 98%
04:00 +25°C° 2.3 mm 4 m/S 757 mmHg 98%
05:00 +25°C° 2.3 mm 4 m/S 757 mmHg 98%
06:00 +25°C° 2.3 mm 4 m/S 758 mmHg 98%
07:00 +26°C° 2.1 mm 4 m/S 758 mmHg 97%
08:00 +26°C° 2.1 mm 4 m/S 758 mmHg 97%
09:00 +27°C° 2.1 mm 4 m/S 759 mmHg 96%
10:00 +28°C° 2 mm 4 m/S 758 mmHg 95%
11:00 +28°C° 2 mm 4 m/S 758 mmHg 95%
12:00 +28°C° 2 mm 4 m/S 757 mmHg 94%
13:00 +28°C° 2 mm 4 m/S 757 mmHg 94%
14:00 +28°C° 2 mm 4 m/S 756 mmHg 94%
15:00 +28°C° 2 mm 4 m/S 756 mmHg 94%
16:00 +27°C° 1.8 mm 4 m/S 756 mmHg 95%
17:00 +26°C° 1.8 mm 4 m/S 757 mmHg 96%
18:00 +26°C° 1.8 mm 5 m/S 757 mmHg 98%
19:00 +26°C° 2.1 mm 5 m/S 757 mmHg 98%
20:00 +26°C° 2.1 mm 5 m/S 758 mmHg 98%
21:00 +26°C° 2.1 mm 4 m/S 758 mmHg 98%
22:00 +26°C° 2.3 mm 5 m/S 758 mmHg 98%
23:00 +26°C° 2.3 mm 5 m/S 758 mmHg 98%

4 November, Mittwoch

Zeit Temperatur Niederschläge Wind Luftdruck Luftfeuchtigkeit
00:00 +26°C° 2.3 mm 5 m/S 758 mmHg 98%
01:00 +26°C° 2 mm 6 m/S 757 mmHg 98%
02:00 +26°C° 2 mm 6 m/S 757 mmHg 98%
03:00 +26°C° 2 mm 6 m/S 757 mmHg 98%
04:00 +26°C° 2.3 mm 7 m/S 757 mmHg 98%
05:00 +26°C° 2.3 mm 7 m/S 757 mmHg 97%
06:00 +26°C° 2.3 mm 7 m/S 757 mmHg 97%
07:00 +26°C° 2.5 mm 8 m/S 758 mmHg 97%
08:00 +26°C° 2.5 mm 8 m/S 758 mmHg 97%
09:00 +26°C° 2.5 mm 8 m/S 758 mmHg 97%
10:00 +26°C° 2.7 mm 8 m/S 758 mmHg 97%
11:00 +26°C° 2.7 mm 9 m/S 758 mmHg 97%
12:00 +26°C° 2.7 mm 9 m/S 757 mmHg 97%
13:00 +26°C° 3.3 mm 9 m/S 757 mmHg 98%
14:00 +26°C° 3.3 mm 9 m/S 756 mmHg 98%
15:00 +26°C° 3.3 mm 9 m/S 756 mmHg 98%
16:00 +26°C° 2.7 mm 9 m/S 756 mmHg 98%
17:00 +26°C° 2.7 mm 9 m/S 757 mmHg 97%
18:00 +26°C° 2.7 mm 9 m/S 757 mmHg 97%
19:00 +26°C° 2.1 mm 9 m/S 757 mmHg 96%
20:00 +26°C° 2.1 mm 10 m/S 758 mmHg 95%
21:00 +26°C° 2.1 mm 10 m/S 758 mmHg 94%
22:00 +26°C° 1.7 mm 10 m/S 757 mmHg 95%
23:00 +24°C° 1.7 mm 11 m/S 757 mmHg 96%

5 November, Donnerstag

Zeit Temperatur Niederschläge Wind Luftdruck Luftfeuchtigkeit
00:00 +24°C° 1.7 mm 11 m/S 757 mmHg 96%
01:00 +24°C° 1.4 mm 12 m/S 757 mmHg 97%
02:00 +24°C° 1.4 mm 12 m/S 756 mmHg 97%
03:00 +23°C° 1.4 mm 12 m/S 756 mmHg 98%
04:00 +23°C° 1.8 mm 13 m/S 756 mmHg 98%
05:00 +23°C° 1.8 mm 13 m/S 756 mmHg 98%
06:00 +23°C° 1.8 mm 13 m/S 756 mmHg 98%
07:00 +23°C° 1.4 mm 13 m/S 756 mmHg 97%
08:00 +22°C° 1.4 mm 13 m/S 756 mmHg 96%
09:00 +22°C° 1.4 mm 13 m/S 757 mmHg 96%
10:00 +23°C° 0.7 mm 13 m/S 756 mmHg 87%
11:00 +26°C° 0.7 mm 13 m/S 756 mmHg 79%
12:00 +27°C° 0.7 mm 13 m/S 756 mmHg 70%
13:00 +27°C° 0.1 mm 13 m/S 755 mmHg 69%
14:00 +27°C° 0.1 mm 13 m/S 755 mmHg 69%
15:00 +27°C° 0.1 mm 13 m/S 754 mmHg 68%
16:00 +27°C° 0.1 mm 13 m/S 754 mmHg 71%
17:00 +26°C° 0.1 mm 12 m/S 755 mmHg 73%
18:00 +26°C° 0.1 mm 12 m/S 755 mmHg 75%
19:00 +26°C° 0.1 mm 12 m/S 755 mmHg 77%
20:00 +24°C° 0.1 mm 12 m/S 755 mmHg 78%
21:00 +24°C° 0.1 mm 12 m/S 755 mmHg 79%
22:00 +24°C° 0.6 mm 12 m/S 755 mmHg 82%
23:00 +24°C° 0.6 mm 12 m/S 755 mmHg 85%
Mehr zeigen